Location: Glencliff
(36.1226°N, 86.7183°W)
Time: 16:46:45
(UTC+00:00)

CZ-2C R/B - Pass Details

Date: 25 August 2019
Orbit: 669 x 783 km, 98.1° (Epoch: 23 October)

Event Time Altitude Azimuth Distance (km) Brightness Sun altitude
Rises 09:56:46 0° 17° (NNE) 3,022 6.3 -15.3°
Reaches altitude 10° 09:59:02 10° 22° (NNE) 2,110 5.5 -14.8°
Maximum altitude 10:03:33 56° 101° (E) 813 2.9 -14.0°
Drops below altitude 10° 10:08:08 10° 179° (S) 2,140 4.6 -13.2°
Sets 10:10:26 0° 183° (S) 3,069 5.4 -12.8°
